GW0346 Weather Reports


time (UTC)temp
C
wind
direction
speed
KPH
gust
KPH
rain 1hr
cm
rain 24hr
cm
rain mn
cm
humidity
%
barometer
mb
20220629032509 30 177 1.6 6.4 0.00 0.00 0.00 29 1012.8
20220629032012 30 215 0.0 6.4 0.00 0.00 0.00 30 1012.8
20220629031518 30 193 0.0 6.4 0.00 0.00 0.00 31 1012.8
20220629031011 30 161 1.6 6.4 0.00 0.00 0.00 30 1012.6
20220629030512 31 270 1.6 6.4 0.00 0.00 0.00 27 1012.4
20220629030009 31 131 1.6 6.4 0.00 0.00 0.00 23 1012.4
20220629025514 31 226 1.6 8.0 0.00 0.00 0.00 23 1012.5
20220629025013 32 142 1.6 8.0 0.00 0.00 0.00 21 1012.5
20220629024513 32 0 1.6 3.2 0.00 0.00 0.00 19 1012.5
20220629024011 32 143 0.0 8.0 0.00 0.00 0.00 18 1012.5
20220629023511 32 140 1.6 8.0 0.00 0.00 0.00 17 1012.5
20220629023013 33 194 1.6 8.0 0.00 0.00 0.00 17 1012.6
20220629022511 33 0 1.6 6.4 0.00 0.00 0.00 16 1012.6
20220629022012 33 149 1.6 9.7 0.00 0.00 0.00 16 1012.6
20220629021513 33 173 3.2 9.7 0.00 0.00 0.00 16 1012.5
20220629021013 33 171 3.2 9.7 0.00 0.00 0.00 16 1012.5
20220629020511 33 0 0.0 6.4 0.00 0.00 0.00 17 1012.5
20220629020017 34 167 1.6 6.4 0.00 0.00 0.00 16 1012.5
20220629015512 34 179 1.6 8.0 0.00 0.00 0.00 16 1012.4
20220629015011 34 205 3.2 8.0 0.00 0.00 0.00 16 1012.4
20220629014511 34 192 1.6 8.0 0.00 0.00 0.00 16 1012.5
20220629014011 35 163 3.2 8.0 0.00 0.00 0.00 14 1012.5
20220629013511 35 207 1.6 6.4 0.00 0.00 0.00 14 1012.5
20220629013009 35 175 1.6 6.4 0.00 0.00 0.00 14 1012.5
20220629012511 35 180 0.0 8.0 0.00 0.00 0.00 13 1012.5
20220629012012 35 134 1.6 8.0 0.00 0.00 0.00 12 1012.5
20220629011512 35 217 1.6 6.4 0.00 0.00 0.00 13 1012.6
20220629011011 35 0 1.6 8.0 0.00 0.00 0.00 14 1012.5
20220629010514 35 151 1.6 8.0 0.00 0.00 0.00 13 1012.5
20220629010010 35 0 1.6 4.8 0.00 0.00 0.00 14 1012.5
20220629005511 35 196 1.6 4.8 0.00 0.00 0.00 14 1012.6
20220629005012 35 0 0.0 4.8 0.00 0.00 0.00 13 1012.8
20220629004510 35 155 0.0 4.8 0.00 0.00 0.00 14 1012.9
20220629004012 36 0 0.0 6.4 0.00 0.00 0.00 11 1012.9
20220629003512 36 0 1.6 6.4 0.00 0.00 0.00 13 1013.0
20220629003009 36 0 0.0 4.8 0.00 0.00 0.00 12 1013.0
20220629002511 36 94 0.0 4.8 0.00 0.00 0.00 11 1013.0
20220629002013 36 0 0.0 4.8 0.00 0.00 0.00 12 1013.0
20220629001512 36 0 0.0 4.8 0.00 0.00 0.00 12 1013.1
20220629001012 36 136 1.6 4.8 0.00 0.00 0.00 11 1013.1
20220629000512 36 0 0.0 4.8 0.00 0.00 0.00 12 1013.3
20220629000010 36 157 0.0 4.8 0.00 0.00 0.00 12 1013.3
20220628235512 36 133 1.6 8.0 0.00 0.00 0.00 12 1013.4
20220628235012 36 131 1.6 8.0 0.00 0.00 0.00 12 1013.4
20220628234516 36 116 1.6 8.0 0.00 0.00 0.00 14 1013.4
20220628234012 36 0 1.6 12.9 0.00 0.00 0.00 12 1013.5
20220628233513 36 171 3.2 12.9 0.00 0.00 0.00 13 1013.5
20220628233013 36 193 1.6 8.0 0.00 0.00 0.00 14 1013.7
20220628232511 36 203 3.2 8.0 0.00 0.00 0.00 14 1013.6
20220628232012 36 236 1.6 6.4 0.00 0.00 0.00 14 1013.6
20220628231511 36 204 1.6 8.0 0.00 0.00 0.00 14 1013.6
20220628231012 36 233 1.6 8.0 0.00 0.00 0.00 14 1013.7
20220628230516 36 144 1.6 11.3 0.00 0.00 0.00 15 1013.8
20220628230011 36 225 3.2 11.3 0.00 0.00 0.00 13 1013.8
20220628225511 36 182 1.6 9.7 0.00 0.00 0.00 13 1013.9
20220628225015 36 234 1.6 8.0 0.00 0.00 0.00 12 1013.8
20220628224518 36 240 1.6 8.0 0.00 0.00 0.00 13 1013.8
20220628224012 36 237 1.6 8.0 0.00 0.00 0.00 14 1013.9
20220628223515 36 0 1.6 8.0 0.00 0.00 0.00 16 1013.9
20220628223012 36 117 1.6 4.8 0.00 0.00 0.00 15 1014.0
20220628222514 36 209 0.0 6.4 0.00 0.00 0.00 16 1014.0
20220628222015 36 159 1.6 8.0 0.00 0.00 0.00 14 1014.0
20220628221514 36 184 1.6 8.0 0.00 0.00 0.00 14 1014.1
20220628221013 36 217 1.6 8.0 0.00 0.00 0.00 14 1014.0
20220628220509 36 0 0.0 9.7 0.00 0.00 0.00 14 1014.1
20220628220019 36 55 1.6 9.7 0.00 0.00 0.00 13 1014.1
20220628215512 36 221 1.6 8.0 0.00 0.00 0.00 13 1014.1
20220628215012 36 0 1.6 8.0 0.00 0.00 0.00 13 1014.2
20220628214510 36 223 1.6 6.4 0.00 0.00 0.00 13 1014.1
20220628214012 35 174 0.0 6.4 0.00 0.00 0.00 15 1014.3
20220628213513 36 0 1.6 9.7 0.00 0.00 0.00 16 1014.2
20220628213010 36 0 1.6 9.7 0.00 0.00 0.00 14 1014.3
20220628212509 36 0 1.6 8.0 0.00 0.00 0.00 14 1014.3
20220628212010 35 196 0.0 6.4 0.00 0.00 0.00 16 1014.4
20220628211511 35 0 0.0 6.4 0.00 0.00 0.00 15 1014.4
20220628211009 35 182 0.0 3.2 0.00 0.00 0.00 12 1014.6
20220628210510 35 0 0.0 4.8 0.00 0.00 0.00 11 1014.6
20220628210010 35 0 0.0 6.4 0.00 0.00 0.00 13 1014.6
20220628205512 35 233 0.0 6.4 0.00 0.00 0.00 23 1014.6
20220628205010 35 163 1.6 6.4 0.00 0.00 0.00 13 1014.7
20220628204512 35 111 0.0 6.4 0.00 0.00 0.00 14 1014.7
20220628204011 35 0 0.0 8.0 0.00 0.00 0.00 19 1014.8
20220628203513 35 189 1.6 8.0 0.00 0.00 0.00 14 1014.9
20220628203012 35 0 1.6 4.8 0.00 0.00 0.00 18 1014.9
20220628202510 35 0 1.6 6.4 0.00 0.00 0.00 14 1015.0
20220628202009 34 0 0.0 6.4 0.00 0.00 0.00 20 1015.0
20220628201515 34 0 1.6 8.0 0.00 0.00 0.00 16 1015.1
20220628201010 34 225 0.0 8.0 0.00 0.00 0.00 21 1015.1
20220628200510 33 53 0.0 6.4 0.00 0.00 0.00 15 1015.1
20220628200012 33 0 0.0 8.0 0.00 0.00 0.00 17 1015.2
20220628195511 33 0 1.6 8.0 0.00 0.00 0.00 16 1015.2
20220628195014 33 209 1.6 6.4 0.00 0.00 0.00 17 1015.3
20220628194520 33 155 1.6 6.4 0.00 0.00 0.00 17 1015.3
20220628194013 33 160 0.0 6.4 0.00 0.00 0.00 17 1015.3
20220628193510 33 0 1.6 6.4 0.00 0.00 0.00 21 1015.5
20220628193013 33 159 1.6 6.4 0.00 0.00 0.00 20 1015.5
20220628192512 32 0 1.6 6.4 0.00 0.00 0.00 19 1015.5
20220628192011 32 0 1.6 6.4 0.00 0.00 0.00 18 1015.5
20220628191515 32 207 1.6 6.4 0.00 0.00 0.00 19 1015.6
20220628191010 32 0 1.6 6.4 0.00 0.00 0.00 20 1015.6
20220628190514 32 142 1.6 8.0 0.00 0.00 0.00 22 1015.7
20220628190012 31 268 3.2 8.0 0.00 0.00 0.00 18 1015.7
20220628185510 32 145 1.6 6.4 0.00 0.00 0.00 20 1015.8
20220628185015 31 129 1.6 8.0 0.00 0.00 0.00 18 1015.7
20220628184513 31 254 1.6 8.0 0.00 0.00 0.00 19 1015.8
20220628184010 31 155 1.6 8.0 0.00 0.00 0.00 19 1015.7
20220628183511 31 241 1.6 8.0 0.00 0.00 0.00 20 1015.7
20220628183012 31 0 1.6 6.4 0.00 0.00 0.00 21 1015.8
20220628182511 31 0 0.0 6.4 0.00 0.00 0.00 25 1015.7
20220628182011 31 218 1.6 6.4 0.00 0.00 0.00 24 1015.8
20220628181512 30 138 1.6 8.0 0.00 0.00 0.00 24 1015.7
20220628181010 30 96 1.6 8.0 0.00 0.00 0.00 27 1015.7
20220628180512 29 0 1.6 8.0 0.00 0.00 0.00 27 1015.8
20220628180013 29 213 1.6 8.0 0.00 0.00 0.00 28 1015.8
20220628175512 29 212 1.6 9.7 0.00 0.00 0.00 28 1015.7
20220628175010 28 238 1.6 9.7 0.00 0.00 0.00 28 1015.7
20220628174513 28 152 1.6 8.0 0.00 0.00 0.00 27 1015.8
20220628174011 28 218 1.6 8.0 0.00 0.00 0.00 27 1015.7
20220628173511 29 238 1.6 6.4 0.00 0.00 0.00 26 1015.8
20220628173013 28 169 1.6 6.4 0.00 0.00 0.00 30 1015.8
20220628172510 28 129 1.6 8.0 0.00 0.00 0.00 28 1015.8
20220628172011 29 173 1.6 8.0 0.00 0.00 0.00 25 1015.7
20220628171517 29 224 1.6 6.4 0.00 0.00 0.00 28 1015.6
20220628171011 29 226 1.6 6.4 0.00 0.00 0.00 26 1015.6
20220628170512 28 160 0.0 3.2 0.00 0.00 0.00 28 1015.6
20220628170011 28 0 0.0 3.2 0.00 0.00 0.00 32 1015.6
20220628165511 28 170 0.0 4.8 0.00 0.00 0.00 28 1015.5
20220628165011 28 0 0.0 4.8 0.00 0.00 0.00 29 1015.5
20220628164509 28 221 0.0 4.8 0.00 0.00 0.00 28 1015.5
20220628164011 27 199 0.0 3.2 0.00 0.00 0.00 31 1015.4
20220628163512 27 0 0.0 1.6 0.00 0.00 0.00 31 1015.3
20220628163009 26 0 0.0 1.6 0.00 0.00 0.00 31 1015.4
20220628162512 26 0 0.0 1.6 0.00 0.00 0.00 33 1015.4
20220628162011 25 0 0.0 3.2 0.00 0.00 0.00 31 1015.4
20220628161509 25 0 0.0 3.2 0.00 0.00 0.00 32 1015.4
20220628161012 25 0 0.0 1.6 0.00 0.00 0.00 32 1015.6
20220628160512 25 0 0.0 0.0 0.00 0.00 0.00 33 1015.7
20220628160012 24 0 0.0 0.0 0.00 0.00 0.00 36 1015.7
20220628155513 24 0 0.0 1.6 0.00 0.00 0.00 35 1015.7
20220628155011 23 0 0.0 1.6 0.00 0.00 0.00 36 1015.8
20220628154512 23 0 0.0 1.6 0.00 0.00 0.00 37 1015.7
20220628154010 23 0 0.0 1.6 0.00 0.00 0.00 39 1015.8
20220628153511 23 0 0.0 1.6 0.00 0.00 0.00 43 1015.7
20220628153015 23 0 0.0 1.6 0.00 0.00 0.00 45 1015.7
20220628152511 22 0 0.0 1.6 0.00 0.00 0.00 46 1015.9
20220628152010 22 0 0.0 1.6 0.00 0.00 0.00 45 1015.8
20220628151512 22 0 0.0 1.6 0.00 0.00 0.00 48 1015.9
20220628151011 21 0 0.0 1.6 0.00 0.00 0.00 43 1016.0
20220628150511 21 0 0.0 0.0 0.00 0.00 0.00 40 1016.0
20220628150016 21 0 0.0 0.0 0.00 0.00 0.00 39 1016.0
20220628145511 21 0 0.0 1.6 0.00 0.00 0.00 40 1016.0
20220628145012 21 0 0.0 1.6 0.00 0.00 0.00 42 1015.9
20220628144513 21 0 0.0 1.6 0.00 0.00 0.00 40 1015.8
20220628144011 20 0 0.0 0.0 0.00 0.00 0.00 44 1015.9
20220628143511 20 0 0.0 0.0 0.00 0.00 0.00 48 1015.8
20220628143010 20 0 0.0 1.6 0.00 0.00 0.00 47 1015.9
20220628142511 20 0 0.0 1.6 0.00 0.00 0.00 46 1015.9
20220628142011 20 0 0.0 0.0 0.00 0.00 0.00 46 1015.8
20220628141511 20 0 0.0 0.0 0.00 0.00 0.00 47 1015.7
20220628141014 20 0 0.0 0.0 0.00 0.00 0.00 43 1015.6
20220628140513 20 0 0.0 0.0 0.00 0.00 0.00 43 1015.6
20220628140020 18 0 0.0 0.0 0.00 0.00 0.00 47 1015.6
20220628135511 18 0 0.0 0.0 0.00 0.00 0.00 48 1015.6
20220628135013 18 0 0.0 1.6 0.00 0.00 0.00 51 1015.6
20220628134519 18 0 0.0 1.6 0.00 0.00 0.00 46 1015.5
20220628134011 19 0 0.0 0.0 0.00 0.00 0.00 44 1015.4
20220628133512 18 0 0.0 0.0 0.00 0.00 0.00 45 1015.4
20220628133016 18 0 0.0 1.6 0.00 0.00 0.00 44 1015.3
20220628132512 18 0 0.0 1.6 0.00 0.00 0.00 43 1015.2
20220628132011 18 0 0.0 1.6 0.00 0.00 0.00 45 1015.2
20220628131511 17 0 0.0 1.6 0.00 0.00 0.00 50 1015.2
20220628131011 18 0 0.0 1.6 0.00 0.00 0.00 45 1015.2
20220628130514 18 360 0.0 1.6 0.00 0.00 0.00 46 1015.2
20220628130010 18 0 0.0 1.6 0.00 0.00 0.00 47 1015.3
20220628125511 17 0 0.0 1.6 0.00 0.00 0.00 48 1015.3
20220628125011 17 360 0.0 1.6 0.00 0.00 0.00 48 1015.3
20220628124509 17 0 0.0 1.6 0.00 0.00 0.00 48 1015.2
20220628124012 17 0 0.0 1.6 0.00 0.00 0.00 50 1015.2
20220628123512 17 0 0.0 1.6 0.00 0.00 0.00 50 1015.1
20220628123010 17 0 0.0 0.0 0.00 0.00 0.00 49 1015.1
20220628122511 17 0 0.0 3.2 0.00 0.00 0.00 50 1015.1
20220628122012 17 0 0.0 3.2 0.00 0.00 0.00 47 1015.1
20220628121513 17 0 0.0 3.2 0.00 0.00 0.00 49 1015.0
20220628121011 17 0 0.0 0.0 0.00 0.00 0.00 50 1015.0
20220628120511 17 0 0.0 0.0 0.00 0.00 0.00 50 1015.0
20220628120010 17 0 0.0 1.6 0.00 0.00 0.00 48 1014.9
20220628115512 18 0 0.0 1.6 0.00 0.00 0.00 44 1014.8
20220628115011 18 0 0.0 3.2 0.00 0.00 0.00 46 1014.7
20220628114510 17 0 0.0 3.2 0.00 0.00 0.00 50 1014.7
20220628114012 17 345 0.0 3.2 0.00 0.00 0.00 53 1014.6
20220628113511 17 0 0.0 1.6 0.00 0.00 0.00 54 1014.6
20220628113010 17 0 0.0 1.6 0.00 0.00 0.00 53 1014.6
20220628112512 17 0 0.0 0.0 0.00 0.00 0.00 51 1014.7
20220628112012 17 0 0.0 0.0 0.00 0.00 0.00 51 1014.8
20220628111523 17 0 0.0 0.0 0.00 0.00 0.00 49 1014.9
20220628111012 17 0 0.0 0.0 0.00 0.00 0.00 50 1014.9
20220628110512 17 0 0.0 1.6 0.00 0.00 0.00 52 1014.9
20220628110010 17 0 0.0 1.6 0.00 0.00 0.00 51 1014.9
20220628105511 17 0 0.0 0.0 0.00 0.00 0.00 50 1014.9
20220628105012 17 0 0.0 0.0 0.00 0.00 0.00 50 1015.0
20220628104513 17 0 0.0 0.0 0.00 0.00 0.00 49 1014.9
20220628104012 17 0 0.0 0.0 0.00 0.00 0.00 49 1014.9
20220628103511 17 0 0.0 0.0 0.00 0.00 0.00 49 1015.0
20220628103010 18 0 0.0 0.0 0.00 0.00 0.00 49 1014.9
20220628102512 18 0 0.0 0.0 0.00 0.00 0.00 47 1015.0
20220628102013 18 0 0.0 0.0 0.00 0.00 0.00 47 1015.0
20220628101521 18 0 0.0 0.0 0.00 0.00 0.00 46 1015.1
20220628101012 18 0 0.0 0.0 0.00 0.00 0.00 45 1015.1
20220628100512 18 0 0.0 0.0 0.00 0.00 0.00 44 1015.1
20220628100009 18 0 0.0 0.0 0.00 0.00 0.00 44 1015.1
20220628095512 18 0 0.0 0.0 0.00 0.00 0.00 45 1015.2
20220628095012 18 0 0.0 0.0 0.00 0.00 0.00 43 1015.3
20220628094510 18 0 0.0 0.0 0.00 0.00 0.00 45 1015.2
20220628094011 19 0 0.0 0.0 0.00 0.00 0.00 46 1015.2
20220628093511 19 0 0.0 0.0 0.00 0.00 0.00 45 1015.2
20220628093011 20 0 0.0 1.6 0.00 0.00 0.00 44 1015.2
20220628092511 20 0 0.0 1.6 0.00 0.00 0.00 41 1015.1
20220628092012 20 0 0.0 1.6 0.00 0.00 0.00 41 1015.1
20220628091519 20 0 0.0 1.6 0.00 0.00 0.00 43 1015.2
20220628091011 20 0 0.0 1.6 0.00 0.00 0.00 42 1015.2
20220628090512 20 0 0.0 1.6 0.00 0.00 0.00 43 1015.2
20220628090010 20 0 0.0 1.6 0.00 0.00 0.00 43 1015.1
20220628085513 20 0 0.0 1.6 0.00 0.00 0.00 44 1015.2
20220628085011 20 0 0.0 1.6 0.00 0.00 0.00 43 1015.1
20220628084510 20 0 0.0 1.6 0.00 0.00 0.00 44 1015.2
20220628084012 20 0 0.0 0.0 0.00 0.00 0.00 46 1015.3
20220628083511 20 0 0.0 1.6 0.00 0.00 0.00 47 1015.2
20220628083011 20 0 0.0 1.6 0.00 0.00 0.00 45 1015.3
20220628082512 20 0 0.0 1.6 0.00 0.00 0.00 45 1015.3
20220628082012 20 0 0.0 1.6 0.00 0.00 0.00 44 1015.3
20220628081511 20 0 0.0 3.2 0.00 0.00 0.00 45 1015.4
20220628081012 20 0 0.0 3.2 0.00 0.00 0.00 47 1015.4
20220628080512 20 0 0.0 0.0 0.00 0.00 0.00 45 1015.4
20220628080009 20 0 0.0 0.0 0.00 0.00 0.00 46 1015.4
20220628075512 20 0 0.0 0.0 0.00 0.00 0.00 46 1015.3
20220628075012 20 0 0.0 0.0 0.00 0.00 0.00 45 1015.5
20220628074511 20 0 0.0 0.0 0.00 0.00 0.00 45 1015.4
20220628074011 20 0 0.0 0.0 0.00 0.00 0.00 44 1015.3
20220628073512 20 0 0.0 0.0 0.00 0.00 0.00 44 1015.3
20220628073017 21 0 0.0 0.0 0.00 0.00 0.00 44 1015.4
20220628072512 21 0 0.0 0.0 0.00 0.00 0.00 43 1015.3
20220628072012 21 0 0.0 1.6 0.00 0.00 0.00 43 1015.4
20220628071510 21 0 0.0 1.6 0.00 0.00 0.00 41 1015.3
20220628071011 21 0 0.0 1.6 0.00 0.00 0.00 41 1015.2
20220628070511 21 0 0.0 1.6 0.00 0.00 0.00 41 1015.2
20220628070010 21 0 0.0 1.6 0.00 0.00 0.00 42 1015.2
20220628065513 21 0 0.0 0.0 0.00 0.00 0.00 43 1015.2
20220628065012 21 0 0.0 0.0 0.00 0.00 0.00 43 1015.2
20220628064510 21 0 0.0 1.6 0.00 0.00 0.00 44 1015.2
20220628064011 21 0 0.0 1.6 0.00 0.00 0.00 45 1015.2
20220628063512 21 0 0.0 1.6 0.00 0.00 0.00 44 1015.3
20220628063016 21 0 0.0 1.6 0.00 0.00 0.00 45 1015.3
20220628062511 21 0 0.0 0.0 0.00 0.00 0.00 46 1015.3
20220628062011 21 0 0.0 0.0 0.00 0.00 0.00 48 1015.3
20220628061512 21 0 0.0 0.0 0.00 0.00 0.00 48 1015.3
20220628061011 21 0 0.0 0.0 0.00 0.00 0.00 48 1015.3
20220628060511 22 0 0.0 0.0 0.00 0.00 0.00 48 1015.3
20220628060024 22 0 0.0 1.6 0.00 0.00 0.00 48 1015.2
20220628055511 22 0 0.0 1.6 0.00 0.00 0.00 47 1015.3
20220628055011 22 0 0.0 3.2 0.00 0.00 0.00 48 1015.3
20220628054519 22 0 0.0 3.2 0.00 0.00 0.00 47 1015.2
20220628054010 22 0 0.0 0.0 0.00 0.00 0.00 46 1015.3
20220628053510 22 0 0.0 0.0 0.00 0.00 0.00 45 1015.3
20220628053010 23 0 0.0 0.0 0.00 0.00 0.00 42 1015.2
20220628052511 23 0 0.0 0.0 0.00 0.00 0.00 40 1015.2
20220628052011 23 0 0.0 1.6 0.00 0.00 0.00 40 1015.1
20220628051509 23 0 0.0 3.2 0.00 0.00 0.00 40 1015.1
20220628051011 23 0 0.0 3.2 0.00 0.00 0.00 42 1015.0
20220628050511 23 317 0.0 3.2 0.00 0.00 0.00 44 1014.9
20220628050013 24 198 0.0 3.2 0.00 0.00 0.00 42 1014.9
20220628045515 25 0 0.0 3.2 0.00 0.00 0.00 40 1014.9
20220628045012 25 0 0.0 1.6 0.00 0.00 0.00 40 1014.9
20220628044513 26 0 0.0 1.6 0.00 0.00 0.00 38 1014.9
20220628044015 26 0 0.0 1.6 0.00 0.00 0.00 38 1014.8
20220628043511 27 0 0.0 1.6 0.00 0.00 0.00 36 1014.6
20220628043010 27 0 0.0 1.6 0.00 0.00 0.00 36 1014.6
20220628042514 27 0 0.0 1.6 0.00 0.00 0.00 35 1014.5
20220628042013 28 0 0.0 3.2 0.00 0.00 0.00 34 1014.5
20220628041513 28 0 0.0 3.2 0.00 0.00 0.00 34 1014.5
20220628041010 28 190 0.0 1.6 0.00 0.00 0.00 33 1014.5
20220628040513 30 0 0.0 4.8 0.00 0.00 0.00 31 1014.4
20220628040020 30 235 0.0 4.8 0.00 0.00 0.00 30 1014.4
20220628035511 30 215 0.0 6.4 0.00 0.00 0.00 29 1014.3
20220628035012 31 227 1.6 6.4 0.00 0.00 0.00 28 1014.3
20220628034510 31 0 0.0 6.4 0.00 0.00 0.00 27 1014.2
20220628034011 31 234 1.6 6.4 0.00 0.00 0.00 25 1014.2
20220628033510 31 197 1.6 4.8 0.00 0.00 0.00 24 1014.2
20220628033013 29 143 1.6 4.8 0.00 0.00 0.00 23 1014.1